Location: Munkebjergskolens Observatorium
(55.3864°N, 10.3987°E)
Time: 21:50:40
(UTC+01:00)

DELTA 1 DEB - Pass Details

Date: 07 December 2023
Orbit: 783 x 826 km, 98.9° (Epoch: 04 March)

Event Time Altitude Azimuth Distance (km) Brightness Sun altitude
Rises 19:33:21 0° 217° (SW) 3,300 ? -30.2°
Reaches altitude 10° 19:36:39 10° 239° (WSW) 2,385 ? -30.7°
Maximum altitude 19:39:46 16° 275° (W) 2,023 ? -31.1°
Drops below altitude 10° 19:42:56 10° 312° (NW) 2,413 ? -31.6°
Sets 19:46:19 0° 334° (NNW) 3,359 ? -32.1°
